Погода в Екимовке

Россия / Рязанская область     54°28′39″N   39°36′09″E
темп.,
°C
ветер,
м/с
пор.,
м/с
влажн.,
%
обл.,
%
осадки,
мм/ч
давл.,
гПа
погр.,
м
21 января, пт
пт2100:00−9ю71592100 0.0 1007435
03:00−8ю71594100 0.5 1006445
06:00−8ю71494100 0.7 1004464
09:00−7ююв71594100 1.8 1004539
12:00−7ююв81494100 0.8 1002614
15:00−6ююв71395100 1.8 1001644
18:00−5ююв61195100 0.8 1001478
21:00−5ююв4996100 1.6 1001361
22 января, сб
сб2200:00−9ю4109422 0.1 1002159
03:00−10ююв51295100 0.1 1003232
06:00−8ююв61293100 0.1 1004356
09:00−8ююв61194100 0.4 1006338
12:00−7ююв5994100 0.1 1008309
15:00−7ююв479484 0.3 1010284
18:00−9ююв489580 0.1 1012167
21:00−9ююв369688 0.1 1015131
23 января, вс
вс2300:00−13ююв349881 0.0 101740
03:00−16ююв2210080 0.0 101913
06:00−14юв2299100 0.0 102133
09:00−16ююв2210081 0.1 10249
12:00−11всв119676 0.0 102748
15:00−11ссв229755 0.0 102912
18:00−16св1110092 0.0 10329
21:00−17св22100100 0.1 103410
24 января, пн
пн2400:00−19ссв22100100 0.0 103518
03:00−20ссв23100100 0.1 103624
06:00−20ссв23100100 0.0 103634
09:00−19ссв36100100 0.1 103775
12:00−12св369776 0.0 1037125
15:00−9ссв369794 0.1 1035154
18:00−14ссв22100100 0.0 103621
21:00−15св23100100 0.1 103630
25 января, вт
вт2500:00−18всв11100100 0.0 10359
03:00−19всв11100100 0.1 10349
06:00−20юв11100100 0.0 10339
09:00−20ю1110097 0.0 10329
12:00−13ююз23945 0.0 103090
15:00−12ю35935 0.0 1028101
18:00−15ю36955 0.0 102764
21:00−15ю48965 0.0 102693